Wind_Speed
3 3 2 2 2 3 5 6 7 7 8 10 10 8 7 5 6 4 8 10 10 9 11 10 8 10 10 11 12 9 9 5 13 22 24 22 18 25 28 29 26 27 32 37 34
3 2 2 2 2 4 6 7 7 8 9 9 10 10 9 7 6 4 3 4 9 13 14 10 4 5 11 5 6 5 6 9 27 29 26 27 22 27 20 29 31 34 38 40 39
2 2 2 2 4 6 6 7 7 8 8 9 10 10 10 8 9 7 5 3 1 3 3 7 5 2 3 4 5 5 13 17 27 21 23 23 23 26 21 26 30 35 33 32 37
3 2 2 2 4 6 6 6 7 7 7 7 7 7 6 6 5 5 5 5 4 3 4 5 6 6 7 6 6 9 11 11 18 13 18 21 21 23 23 24 30 36 31 30 37
2 1 1 1 4 5 5 5 5 5 6 6 5 4 3 3 1 1 1 2 2 4 5 6 6 6 7 8 9 11 8 11 12 14 13 16 19 20 23 25 31 31 34 33 38
2 1 1 3 4 4 3 3 3 4 4 5 5 5 5 4 3 3 3 3 3 5 6 6 7 7 6 8 9 11 15 18 16 17 15 16 20 24 22 25 31 25 31 34 38
2 1 2 4 4 3 1 1 2 4 5 6 7 8 7 7 5 4 5 6 7 8 8 8 8 9 9 7 8 8 13 16 20 19 21 23 27 30 32 35 37 30 32 34 35
3 3 3 4 4 3 2 3 4 6 7 8 8 9 9 9 8 8 9 9 10 10 9 8 9 9 8 8 8 11 13 14 28 35 37 32 30 30 35 39 43 44 39 35 37
6 5 5 5 5 5 5 6 7 9 10 11 11 12 11 12 13 13 13 13 12 11 10 9 9 8 7 9 14 24 5 14 18 26 39 36 34 34 34 36 40 44 44 44 42
8 8 8 7 8 8 9 10 11 12 13 14 15 17 14 15 16 16 15 16 15 14 12 10 11 10 10 9 10 13 22 25 27 28 35 38 38 38 38 39 40 42 44 45 45
9 10 10 11 11 12 13 13 14 15 15 16 16 18 17 18 17 16 17 18 16 15 14 14 14 13 14 15 18 20 24 27 28 33 36 38 41 41 41 42 41 42 42 42 44
7 9 12 13 14 15 15 16 17 17 16 16 18 18 18 18 18 17 20 20 17 16 16 16 16 19 19 23 25 27 31 33 34 35 40 42 43 44 42 42 40 43 39 38 39
7 8 9 11 14 16 16 16 16 16 18 16 17 20 19 20 19 19 17 16 16 17 18 18 21 24 27 28 32 33 35 39 39 39 40 44 48 44 38 29 36 44 42 36 38
7 7 8 9 10 12 13 13 14 17 20 21 17 18 17 17 18 16 15 15 17 19 21 21 27 31 31 33 36 35 37 42 42 44 44 41 50 40 32 25 27 37 41 41 40
9 9 9 9 9 9 10 13 14 14 16 24 19 18 17 18 19 14 16 19 20 21 26 26 31 34 36 35 37 39 41 41 42 43 44 42 28 35 18 22 18 22 31 37 45
9 9 10 11 12 13 13 14 15 13 14 20 21 20 19 20 18 19 20 20 24 24 27 33 37 37 41 39 39 42 40 42 43 41 41 27 26 26 20 26 30 32 39 39 49
9 10 9 10 11 12 13 13 12 11 15 22 19 19 20 20 25 24 20 25 30 30 29 29 30 35 42 40 39 37 40 44 45 39 36 22 26 30 31 31 34 37 41 52 53
10 9 9 9 10 11 12 12 12 12 20 16 19 22 22 26 24 27 25 28 34 32 32 34 25 37 43 40 41 39 38 34 39 36 39 34 38 32 24 33 43 46 51 50 47
12 12 12 12 12 12 13 15 19 20 20 21 22 24 20 27 23 22 26 30 32 32 35 37 36 35 36 35 32 32 30 32 38 39 43 38 36 17 29 44 50 50 55 61 57
13 13 14 13 11 11 11 15 18 19 21 21 21 23 21 20 30 28 28 35 37 35 37 36 38 33 35 32 31 35 36 38 35 40 46 43 38 37 24 31 36 38 39 40 42
13 12 14 12 12 12 14 18 20 15 19 20 22 22 22 23 26 27 31 35 36 34 36 38 39 32 31 29 35 37 31 30 35 37 42 45 47 35 41 43 47 51 56 64 67
12 12 14 14 15 16 18 17 15 15 12 15 16 18 21 26 28 29 30 35 32 36 34 34 31 33 36 38 40 40 35 35 32 37 47 49 53 45 45 47 49 55 53 51 58
13 13 13 15 16 20 14 19 15 15 16 18 20 21 24 25 27 26 29 33 30 31 29 31 34 42 44 31 36 39 39 36 40 45 50 52 47 43 45 50 44 51 51 48 52
15 17 15 17 17 18 15 16 20 16 22 23 22 21 23 24 26 27 27 29 30 29 31 36 38 43 45 44 45 47 47 38 35 42 45 45 45 42 38 55 53 50 36 37 45
17 17 20 21 16 17 15 15 19 21 20 19 21 22 24 24 24 26 25 27 28 35 38 42 43 44 46 44 46 46 42 34 40 44 49 43 48 51 52 51 44 37 39 41 43
20 20 19 20 21 19 18 19 21 21 21 22 23 24 24 24 24 23 26 29 31 36 39 41 43 45 47 47 45 46 37 35 26 25 27 39 45 52 44 38 37 40 41 45 46
23 22 21 21 20 22 22 23 23 24 22 23 24 22 23 22 23 25 29 32 36 37 37 37 39 41 43 43 43 35 27 32 34 38 32 43 40 36 30 33 38 45 47 48 48
Wind_Direction
319 335 342 1 39 75 98 95 85 72 78 83 85 83 81 80 84 107 183 206 218 248 283 289 252 257 267 255 253 253 256 268 215 240 272 284 262 251 244 257 261 259 268 277 277
308 339 358 16 59 101 111 99 92 82 79 78 80 79 77 84 91 113 145 214 242 266 287 298 265 242 277 301 260 244 227 245 240 252 276 286 289 274 263 257 253 253 253 259 269
304 329 3 53 101 117 111 104 96 86 81 76 72 69 65 66 74 82 93 110 206 285 331 312 5 70 255 312 300 228 200 262 249 277 279 283 291 279 291 278 275 260 274 274 267
308 318 335 59 113 122 113 95 85 79 72 68 67 65 59 53 80 74 76 76 57 24 19 333 328 326 339 317 288 274 274 277 284 282 282 289 293 293 289 279 276 283 282 276 273
313 327 334 88 127 123 103 83 73 66 52 43 36 31 15 360 26 22 38 70 29 356 328 335 330 317 308 300 296 301 285 285 301 303 302 297 296 295 291 283 284 286 285 284 278
323 312 100 126 131 126 103 73 75 57 28 14 354 337 323 318 299 284 289 304 329 335 315 306 309 297 292 288 292 301 307 312 310 318 324 330 317 312 300 287 290 292 280 277 275
305 189 146 156 158 163 170 36 15 358 352 342 331 323 312 299 295 280 281 284 280 301 314 298 295 293 295 290 295 303 302 299 293 300 314 325 321 317 315 312 309 302 290 283 278
270 224 191 185 198 225 263 287 318 326 326 323 318 312 303 298 291 283 289 296 291 282 301 300 301 308 309 310 312 292 303 7 321 321 316 323 320 318 315 313 311 309 307 299 293
265 253 231 222 234 256 271 282 297 304 310 311 308 307 307 293 287 284 286 291 301 281 292 295 305 303 297 298 1 329 300 284 293 300 307 311 315 315 311 304 302 302 304 302 296
262 261 252 249 254 262 270 281 291 297 302 306 307 306 303 294 289 285 287 289 290 288 281 290 302 302 307 306 289 236 279 294 299 302 302 309 311 310 307 301 297 295 296 297 294
263 262 261 260 264 269 276 284 290 295 302 307 312 310 310 297 288 286 290 291 287 284 280 302 307 308 277 301 297 293 288 290 294 298 300 304 307 308 303 298 292 289 290 290 290
277 268 265 266 269 274 280 287 293 297 301 305 312 314 310 299 291 286 290 292 282 281 285 295 311 292 301 295 292 292 292 292 295 301 300 301 303 304 299 293 289 287 288 285 283
281 285 279 274 272 275 280 287 295 300 301 304 308 310 303 291 290 297 293 294 283 283 282 293 295 289 299 296 295 296 297 293 297 296 297 299 301 306 298 279 284 285 286 280 280
282 285 289 288 281 279 279 288 297 301 301 301 310 311 308 303 296 296 299 295 288 287 288 296 294 295 298 296 296 300 295 299 301 300 302 299 300 301 303 301 288 299 296 293 293
285 285 285 288 289 288 286 287 293 298 298 309 317 311 308 302 300 293 291 293 288 291 295 296 294 296 295 297 299 299 299 299 299 300 303 305 303 310 310 276 288 283 277 276 285
297 288 284 282 281 280 282 282 292 294 286 302 312 314 308 300 296 300 299 289 286 290 295 296 299 297 298 303 306 303 301 301 305 310 306 312 299 311 284 265 264 274 277 279 279
303 298 294 289 285 283 282 282 285 288 291 298 318 316 312 303 310 304 299 298 295 299 299 299 300 298 297 305 304 308 310 308 305 302 300 283 258 257 265 281 277 263 259 273 286
298 299 297 294 289 286 285 280 280 283 275 303 301 302 303 296 301 300 300 297 297 304 302 301 293 291 307 307 310 310 307 309 304 308 303 304 297 300 286 268 262 258 259 264 272
286 288 289 289 287 288 287 280 276 285 289 293 298 299 302 299 303 298 295 292 297 299 300 301 301 308 306 307 305 307 307 302 304 304 301 303 301 300 284 291 284 280 280 276 274
283 286 284 286 289 291 291 286 291 292 293 294 292 291 290 273 294 305 301 300 302 308 303 304 302 309 306 311 313 314 314 310 307 307 303 305 296 297 274 279 284 281 290 275 275
285 280 283 284 281 283 288 295 300 292 285 284 285 286 289 289 290 294 297 296 306 304 308 307 309 310 310 315 313 308 293 292 298 287 280 291 298 291 288 274 269 273 273 274 277
290 284 284 286 286 286 291 292 295 305 301 300 295 293 290 291 297 298 298 298 310 307 307 304 309 308 310 315 310 313 312 305 309 299 291 288 296 295 286 295 286 283 280 277 280
285 288 286 285 287 289 286 282 282 296 298 296 292 289 293 296 298 299 300 303 308 304 307 307 312 311 311 311 303 299 298 294 285 288 290 288 297 295 294 289 289 286 288 288 281
288 295 288 284 285 285 287 284 288 290 295 294 296 296 298 300 302 307 307 308 312 309 310 308 312 310 310 314 314 310 307 307 308 289 292 288 291 292 285 286 286 289 291 298 287
284 293 294 293 274 276 282 295 300 300 296 298 299 302 303 307 311 313 312 312 315 311 313 313 314 312 313 316 312 313 310 304 282 281 279 289 284 279 280 294 292 295 295 296 296
282 284 289 293 281 269 270 286 300 301 298 298 301 307 310 314 316 316 314 312 314 313 314 316 318 316 316 317 315 315 310 296 300 293 295 288 289 290 297 290 292 298 295 294 293
282 283 285 295 280 267 275 284 293 297 296 299 306 308 312 314 314 316 314 315 316 317 316 315 314 313 315 317 317 320 306 295 299 290 291 307 303 306 302 302 303 300 298 299 297
Height
5868 5868 5868 5867 5867 5866 5866 5866 5866 5866 5866 5866 5867 5866 5866 5867 5867 5868 5869 5871 5872 5873 5873 5874 5875 5876 5877 5877 5878 5879 5881 5885 5886 5883 5881 5880 5884 5883 5884 5884 5886 5886 5882 5880 5882
5869 5868 5868 5868 5867 5867 5867 5868 5868 5868 5868 5868 5868 5868 5868 5867 5868 5869 5870 5870 5871 5872 5872 5872 5872 5873 5872 5873 5876 5877 5878 5879 5877 5877 5878 5878 5880 5878 5883 5880 5880 5881 5878 5877 5877
5869 5869 5869 5868 5868 5869 5869 5869 5870 5870 5870 5870 5870 5870 5870 5870 5870 5870 5871 5871 5872 5872 5871 5872 5871 5872 5873 5873 5873 5875 5875 5873 5876 5878 5877 5875 5875 5873 5876 5874 5873 5872 5875 5876 5874
5869 5869 5869 5869 5869 5870 5871 5871 5871 5872 5872 5872 5872 5872 5872 5872 5873 5872 5872 5872 5873 5872 5872 5871 5871 5871 5871 5872 5873 5873 5872 5873 5872 5875 5874 5871 5870 5870 5870 5870 5868 5864 5867 5868 5864
5869 5869 5870 5870 5871 5872 5872 5873 5873 5873 5873 5873 5874 5873 5873 5874 5873 5873 5873 5873 5873 5873 5872 5871 5870 5870 5870 5870 5869 5868 5870 5870 5869 5869 5869 5869 5867 5867 5865 5865 5861 5862 5859 5860 5857
5869 5869 5870 5871 5872 5872 5873 5874 5874 5874 5874 5874 5874 5874 5874 5875 5873 5873 5873 5873 5873 5873 5872 5871 5870 5870 5870 5869 5869 5867 5865 5863 5863 5863 5864 5863 5861 5859 5861 5859 5855 5858 5854 5853 5850
5869 5869 5870 5871 5872 5873 5873 5874 5874 5874 5874 5874 5874 5874 5874 5875 5873 5874 5873 5873 5873 5872 5871 5870 5869 5869 5868 5867 5867 5866 5865 5863 5861 5860 5859 5860 5857 5852 5850 5848 5845 5848 5847 5846 5844
5869 5869 5870 5871 5872 5873 5874 5874 5874 5874 5874 5874 5873 5873 5873 5872 5873 5873 5873 5872 5871 5871 5870 5869 5868 5867 5865 5865 5865 5864 5862 5861 5856 5853 5849 5853 5853 5850 5845 5840 5835 5832 5833 5834 5832
5868 5869 5870 5871 5872 5872 5873 5873 5873 5873 5873 5873 5872 5871 5872 5871 5871 5870 5870 5870 5870 5869 5868 5867 5866 5865 5864 5863 5861 5860 5865 5862 5861 5854 5849 5848 5846 5844 5842 5838 5833 5828 5825 5822 5821
5867 5868 5869 5869 5870 5871 5871 5872 5872 5872 5871 5871 5870 5870 5869 5868 5867 5867 5867 5867 5867 5866 5866 5865 5864 5862 5860 5861 5861 5861 5858 5857 5855 5853 5845 5842 5841 5838 5835 5831 5826 5822 5819 5815 5812
5865 5866 5867 5868 5868 5869 5870 5870 5871 5870 5869 5868 5867 5865 5865 5864 5863 5863 5863 5863 5863 5862 5862 5861 5860 5859 5857 5856 5856 5855 5854 5852 5850 5846 5842 5838 5834 5831 5827 5823 5819 5815 5811 5808 5803
5863 5864 5865 5865 5866 5866 5866 5867 5866 5867 5867 5865 5864 5862 5861 5860 5859 5859 5859 5858 5858 5858 5857 5858 5856 5853 5853 5852 5851 5849 5846 5844 5841 5837 5833 5829 5826 5823 5818 5813 5808 5804 5805 5800 5795
5862 5862 5862 5863 5863 5864 5864 5864 5863 5863 5862 5863 5861 5859 5858 5856 5855 5854 5855 5854 5853 5853 5853 5853 5852 5850 5847 5845 5842 5842 5838 5833 5832 5829 5826 5819 5814 5812 5808 5805 5800 5795 5793 5790 5787
5860 5860 5860 5860 5861 5860 5861 5861 5861 5860 5857 5858 5858 5855 5854 5852 5852 5851 5850 5851 5849 5849 5848 5849 5845 5843 5841 5838 5835 5834 5829 5824 5821 5818 5814 5810 5801 5805 5798 5796 5793 5786 5781 5777 5773
5858 5858 5858 5858 5858 5859 5859 5858 5858 5857 5856 5853 5853 5852 5850 5849 5848 5848 5847 5846 5845 5845 5843 5843 5839 5836 5833 5830 5827 5824 5820 5816 5812 5807 5802 5801 5794 5794 5795 5790 5786 5784 5777 5770 5765
5856 5855 5855 5855 5855 5855 5855 5855 5855 5856 5852 5851 5849 5847 5846 5845 5844 5843 5842 5842 5841 5840 5838 5834 5831 5828 5823 5821 5817 5812 5809 5806 5801 5796 5791 5792 5792 5788 5789 5786 5782 5779 5771 5762 5757
5853 5853 5852 5852 5852 5851 5852 5852 5853 5852 5852 5848 5847 5845 5843 5842 5839 5837 5839 5837 5833 5832 5831 5829 5825 5819 5814 5813 5808 5803 5798 5793 5792 5789 5786 5786 5782 5780 5777 5777 5769 5764 5756 5752 5749
5851 5850 5850 5849 5849 5848 5849 5849 5849 5849 5846 5847 5844 5842 5841 5837 5837 5834 5833 5831 5824 5824 5823 5820 5820 5811 5806 5802 5798 5794 5790 5786 5779 5778 5775 5777 5771 5772 5766 5760 5752 5747 5741 5737 5733
5848 5847 5847 5846 5846 5846 5846 5846 5845 5843 5843 5841 5840 5838 5837 5832 5832 5830 5827 5825 5821 5820 5816 5812 5810 5803 5799 5796 5793 5789 5784 5780 5773 5771 5764 5766 5764 5764 5759 5742 5735 5735 5732 5724 5717
5844 5844 5843 5843 5843 5843 5842 5841 5839 5839 5838 5837 5835 5834 5833 5831 5825 5824 5822 5817 5813 5812 5808 5805 5802 5799 5792 5788 5785 5779 5773 5770 5766 5758 5752 5752 5751 5750 5747 5732 5723 5721 5716 5713 5708
5841 5841 5840 5840 5839 5839 5838 5836 5834 5834 5832 5831 5829 5828 5827 5825 5822 5821 5817 5811 5808 5804 5800 5795 5792 5791 5785 5782 5777 5773 5769 5764 5759 5755 5745 5737 5738 5740 5732 5726 5719 5711 5705 5701 5695
5837 5837 5836 5835 5836 5834 5833 5832 5830 5828 5828 5826 5824 5822 5820 5818 5816 5814 5810 5803 5803 5797 5793 5787 5785 5781 5778 5774 5768 5761 5758 5754 5747 5743 5738 5728 5720 5728 5715 5710 5700 5695 5690 5687 5683
5833 5832 5832 5831 5830 5828 5829 5826 5825 5824 5823 5821 5819 5817 5814 5812 5810 5807 5802 5797 5795 5790 5786 5781 5778 5770 5766 5767 5762 5757 5750 5746 5741 5732 5722 5715 5708 5710 5705 5689 5688 5681 5676 5673 5668
5829 5828 5828 5826 5825 5823 5822 5821 5819 5820 5817 5815 5813 5810 5808 5806 5803 5800 5796 5791 5786 5783 5780 5775 5772 5764 5758 5752 5745 5740 5736 5732 5728 5719 5711 5704 5698 5695 5689 5682 5680 5672 5668 5664 5658
5824 5824 5822 5821 5821 5818 5818 5817 5814 5812 5811 5809 5807 5805 5802 5799 5796 5792 5789 5785 5782 5775 5771 5765 5761 5754 5748 5743 5736 5729 5724 5720 5712 5708 5700 5694 5688 5684 5676 5672 5670 5663 5657 5653 5647
5818 5817 5818 5816 5814 5813 5813 5812 5810 5807 5806 5804 5802 5798 5796 5793 5790 5787 5784 5780 5777 5771 5764 5758 5751 5744 5738 5732 5724 5718 5713 5705 5701 5697 5690 5685 5681 5672 5669 5663 5658 5652 5646 5642 5636
5813 5812 5811 5811 5809 5807 5807 5806 5804 5802 5801 5798 5795 5793 5790 5788 5785 5782 5778 5774 5769 5763 5758 5752 5746 5738 5731 5723 5715 5709 5703 5698 5693 5687 5679 5674 5668 5664 5660 5656 5649 5641 5634 5628 5621